La Junta, CO

6:03 AM MST on November 19, 2017 (GMT -0700)
La Junta Municipal

Weather History for KLHX - July, 2013

Change the Weather History Date:

Monday, July 22, 2013

  Actual Average Record
Temperature  
Mean Temperature 86 °F 79 °F  
Max Temperature 103 °F 94 °F 106 °F (1963)
Min Temperature 68 °F 64 °F 54 °F (1973)
Degree Days  
Heating Degree Days 0 0  
Month to date heating degree days 0 0  
Since 1 June heating degree days 11 16  
Since 1 July heating degree days 0 0  
Cooling Degree Days 21 14  
Month to date cooling degree days 322 296  
Year to date cooling degree days 848 613  
Since 1 June cooling degree days 710 540  
Growing Degree Days 36 (Base 50)    
Moisture  
Dew Point 44 °F    
Average Humidity 30    
Maximum Humidity 51    
Minimum Humidity 9    
Precipitation  
Precipitation 0.00 in 0.07 in 2.84 in (1966)
Month to date precipitation 0.43 1.29  
Year to date precipitation 3.10  
Sea Level Pressure  
Sea Level Pressure 29.70 in    
Wind  
Wind Speed 11 mph (West)    
Max Wind Speed 20 mph    
Max Gust Speed 30 mph    
Visibility 10 miles    
Events      
T = Trace of Precipitation, MM = Missing Value Source: NWS Daily Summary

Daily Weather History Graph

Daily Weather History Graph

Search for Another Location

Airport or City:

Trip Planner

Search our weather history database for the weather conditions in past years. The results will help you decide how hot, cold, wet, or windy it might be!

Date:

Astronomy

Jul. 22, 2013 Rise Set
Actual Time 5:48 AM MDT 8:11 PM MDT
Civil Twilight 5:18 AM MDT 8:41 PM MDT
Nautical Twilight 4:41 AM MDT 9:18 PM MDT
Astronomical Twilight 4:00 AM MDT 9:59 PM MDT
Moon 8:01 PM MDT (7/22) 5:47 AM MDT (7/22)
Length of Visible Light 15h 22m
Length of Day
14h 22m
Full, 100% of the Moon is Illuminated
Jul 22
Full
Jul 22
Full
Jul 29
Last Quarter
Aug 6
New
Aug 14
First Quarter

Hourly Weather History & Observations

Time (MDT) Temp. Dew Point Humidity Pressure Visibility Wind Dir Wind Speed Gust Speed Precip Events Conditions
12:53 AM 78.1 °F 48.0 °F 35% 29.71 in 10.0 mi SW 13.8 mph - N/A   Clear
1:53 AM 79.0 °F 50.0 °F 36% 29.70 in 10.0 mi SW 13.8 mph - N/A   Clear
2:53 AM 77.0 °F 51.1 °F 40% 29.68 in 10.0 mi WSW 16.1 mph - N/A   Clear
3:53 AM 75.0 °F 52.0 °F 44% 29.68 in 10.0 mi WSW 17.3 mph - N/A   Clear
4:53 AM 72.0 °F 48.9 °F 44% 29.68 in 10.0 mi WSW 10.4 mph - N/A   Clear
5:53 AM 69.1 °F 50.0 °F 51% 29.70 in 10.0 mi West 12.7 mph - N/A   Clear
6:53 AM 72.0 °F 50.0 °F 46% 29.70 in 10.0 mi WSW 12.7 mph - N/A   Clear
7:53 AM 75.9 °F 48.9 °F 38% 29.72 in 10.0 mi West 13.8 mph - N/A   Clear
8:53 AM 81.0 °F 50.0 °F 34% 29.73 in 10.0 mi West 6.9 mph - N/A   Clear
9:53 AM 89.1 °F 46.9 °F 23% 29.72 in 10.0 mi West 9.2 mph - N/A   Clear
10:53 AM 91.9 °F 48.0 °F 22% 29.72 in 10.0 mi Calm Calm - N/A   Clear
11:53 AM 97.0 °F 43.0 °F 16% 29.72 in 10.0 mi NE 11.5 mph - N/A   Clear
12:53 PM 99.0 °F 39.0 °F 13% 29.72 in 10.0 mi East 11.5 mph 20.7 mph N/A   Clear
1:53 PM 100.0 °F 32.0 °F 9% 29.69 in 10.0 mi NE 11.5 mph 18.4 mph N/A   Clear
2:53 PM 102.0 °F 32.0 °F 9% 29.69 in 10.0 mi East 16.1 mph 19.6 mph N/A   Clear
3:53 PM 100.0 °F 30.9 °F 9% 29.69 in 10.0 mi ENE 13.8 mph 19.6 mph N/A   Clear
4:53 PM 100.9 °F 35.1 °F 10% 29.68 in 10.0 mi ENE 15.0 mph - N/A   Clear
5:53 PM 98.1 °F 37.0 °F 12% 29.68 in 10.0 mi NE 15.0 mph 18.4 mph N/A   Clear
6:53 PM 95.0 °F 41.0 °F 15% 29.70 in 10.0 mi NE 12.7 mph - N/A   Clear
7:53 PM 91.9 °F 45.0 °F 20% 29.69 in 10.0 mi NE 10.4 mph - N/A   Clear
8:53 PM 89.1 °F 46.9 °F 23% 29.70 in 10.0 mi SSE 5.8 mph - N/A   Clear
9:53 PM 88.0 °F 46.0 °F 23% 29.70 in 10.0 mi SSE 3.5 mph - N/A   Clear
10:53 PM 82.9 °F 44.1 °F 25% 29.72 in 10.0 mi Calm Calm - N/A   Clear
11:53 PM 80.1 °F 43.0 °F 27% 29.73 in 10.0 mi WNW 3.5 mph - N/A   Clear